FW7166 Weather Reports


Display with metric or nautical units.
time (UTC)temp
F
wind
direction
speed
MPH
gust
MPH
rain 1hr
in
rain 24hr
in
rain mn
in
humidity
%
barometer
mb
20260507062601 48 224 0.0 11.0 0.00 0.00 0.00 57 1017.0
20260507062101 48 224 0.0 11.0 0.00 0.00 0.00 57 1016.6
20260507061044 47 234 0.0 11.0 0.00 0.00 0.00 59 1016.9
20260507060544 47 232 0.0 11.0 0.00 0.00 0.00 59 1017.0
20260507060044 46 232 0.0 11.0 0.00 0.00 0.00 60 1017.1
20260507055544 46 232 0.0 11.0 0.00 0.00 0.00 61 1017.0
20260507055044 45 232 0.0 11.0 0.00 0.00 0.00 63 1016.7
20260507054544 44 232 0.0 11.0 0.00 0.00 0.00 67 1016.9
20260507054043 43 232 0.0 11.0 0.00 0.00 0.00 66 1017.0
20260507053543 43 232 0.0 11.0 0.00 0.00 0.00 69 1016.9
20260507053043 43 232 0.0 11.0 0.00 0.00 0.00 71 1017.0
20260507052543 42 232 0.0 11.0 0.00 0.00 0.00 73 1017.0
20260507052043 41 232 0.0 11.0 0.00 0.00 0.00 73 1016.9
20260507051543 40 232 0.0 11.0 0.00 0.00 0.00 75 1017.1
20260507050527 39 232 0.0 11.0 0.00 0.00 0.00 75 1016.7
20260507050026 39 232 0.0 11.0 0.00 0.00 0.00 76 1017.0
20260507045526 39 232 0.0 11.0 0.00 0.00 0.00 77 1017.1
20260507045025 38 232 0.0 11.0 0.00 0.00 0.00 77 1017.2
20260507044009 38 232 0.0 11.0 0.00 0.00 0.00 81 1016.9
20260507043509 37 232 0.0 11.0 0.00 0.00 0.00 81 1016.9
20260507043008 37 232 0.0 11.0 0.00 0.00 0.00 81 1016.8
20260507042507 37 232 0.0 11.0 0.00 0.00 0.00 81 1016.8
20260507042006 37 232 0.0 11.0 0.00 0.00 0.00 82 1016.7
20260507041505 36 232 0.0 11.0 0.00 0.00 0.00 82 1016.8
20260507041005 36 232 0.0 11.0 0.00 0.00 0.00 82 1016.9
20260507040505 36 232 0.0 11.0 0.00 0.00 0.00 81 1016.9
20260507040004 36 232 0.0 11.0 0.00 0.00 0.00 81 1016.8
20260507035504 36 232 0.0 11.0 0.00 0.00 0.00 80 1016.6
20260507035004 37 232 0.0 11.0 0.00 0.00 0.00 80 1016.6
20260507034505 37 232 0.0 11.0 0.00 0.00 0.00 80 1016.8
20260507034004 37 232 0.0 11.0 0.00 0.00 0.00 80 1016.2
20260507033504 37 232 0.0 11.0 0.00 0.00 0.00 80 1016.5
20260507033004 37 232 0.0 11.0 0.00 0.00 0.00 81 1016.4
20260507032504 36 233 1.0 11.0 0.00 0.00 0.00 82 1016.1
20260507032002 36 223 1.0 11.0 0.00 0.00 0.00 85 1016.4
20260507031501 35 213 0.0 11.0 0.00 0.00 0.00 87 1016.3
20260507031000 34 225 1.0 11.0 0.00 0.00 0.00 88 1016.2
20260507030459 34 230 0.0 11.0 0.00 0.00 0.00 87 1016.2
20260507025959 34 230 1.0 11.0 0.00 0.00 0.00 88 1016.3
20260507025458 34 210 1.0 11.0 0.00 0.00 0.00 88 1016.4
20260507024958 34 209 1.0 11.0 0.00 0.00 0.00 87 1016.2
20260507023943 34 209 0.0 11.0 0.00 0.00 0.00 87 1016.2
20260507023443 34 209 0.0 11.0 0.00 0.00 0.00 87 1016.3
20260507021912 35 209 0.0 11.0 0.00 0.00 0.00 85 1015.9
20260507021412 35 209 0.0 11.0 0.00 0.00 0.00 85 1016.3
20260507020912 35 209 0.0 11.0 0.00 0.00 0.00 84 1016.2
20260507020412 35 209 0.0 11.0 0.00 0.00 0.00 84 1016.1
20260507015911 36 209 0.0 11.0 0.00 0.00 0.00 83 1016.2
20260507015411 36 209 0.0 11.0 0.00 0.00 0.00 83 1016.1
20260507014911 37 209 0.0 11.0 0.00 0.00 0.00 82 1016.4
20260507014411 37 209 0.0 11.0 0.00 0.00 0.00 82 1016.1
20260507013911 37 209 0.0 11.0 0.00 0.00 0.00 82 1016.2
20260507013410 37 209 0.0 11.0 0.00 0.00 0.00 82 1016.0
20260507012910 38 209 0.0 11.0 0.00 0.00 0.00 81 1015.9
20260507012409 38 209 0.0 11.0 0.00 0.00 0.00 80 1016.0
20260507011353 38 209 0.0 11.0 0.00 0.00 0.00 80 1016.0
20260507010853 39 209 0.0 11.0 0.00 0.00 0.00 80 1016.1
20260507010352 39 209 0.0 11.0 0.00 0.00 0.00 79 1015.9
20260507005852 39 209 0.0 11.0 0.00 0.00 0.00 79 1015.9
20260507005352 39 209 0.0 11.0 0.00 0.00 0.00 79 1015.6
20260507004851 40 209 0.0 11.0 0.00 0.00 0.00 78 1015.9
20260507004351 40 209 0.0 11.0 0.00 0.00 0.00 77 1015.7
20260507003850 40 209 0.0 11.0 0.00 0.00 0.00 77 1015.6
20260507002835 42 209 0.0 11.0 0.00 0.00 0.00 76 1015.4
20260507002335 42 209 0.0 11.0 0.00 0.00 0.00 77 1015.4
20260507001834 42 142 0.0 11.0 0.00 0.00 0.00 77 1015.5
20260507001334 42 116 0.0 11.0 0.00 0.00 0.00 76 1015.9
20260507000321 42 116 0.0 11.0 0.00 0.00 0.00 75 1015.8
20260506235306 43 116 0.0 11.0 0.00 0.00 0.00 74 1015.4
20260506234802 43 116 0.0 11.0 0.00 0.00 0.00 74 1015.3
20260506234301 43 116 0.0 11.0 0.00 0.00 0.00 74 1015.5
20260506233800 43 116 0.0 11.0 0.00 0.00 0.00 74 1015.3
20260506233300 43 116 0.0 11.0 0.00 0.00 0.00 74 1015.7
20260506232800 43 116 0.0 11.0 0.00 0.00 0.00 74 1015.7
20260506232300 43 116 0.0 11.0 0.00 0.00 0.00 74 1015.5
20260506231800 43 117 0.0 11.0 0.00 0.00 0.00 73 1015.7
20260506230744 43 117 0.0 11.0 0.00 0.00 0.00 73 1015.5
20260506230244 43 117 0.0 11.0 0.00 0.00 0.00 72 1015.3
20260506225744 43 117 0.0 11.0 0.00 0.00 0.00 71 1015.3
20260506225244 43 117 0.0 11.0 0.00 0.00 0.00 72 1015.4
20260506224229 43 117 0.0 11.0 0.00 0.00 0.00 70 1015.4
20260506223213 43 94 0.0 11.0 0.00 0.00 0.00 70 1015.4
20260506222712 43 99 0.0 11.0 0.00 0.00 0.00 70 1015.0
20260506221656 43 114 0.0 11.0 0.00 0.00 0.00 71 1015.3
20260506221156 43 119 0.0 11.0 0.00 0.00 0.00 71 1015.4
20260506220655 44 145 1.0 11.0 0.00 0.00 0.00 72 1015.4
20260506220154 44 105 1.0 11.0 0.00 0.00 0.00 73 1015.1
20260506215654 44 76 1.0 11.0 0.00 0.00 0.00 74 1015.0
20260506214639 44 142 0.0 11.0 0.00 0.00 0.00 73 1014.8
20260506214139 45 142 0.0 11.0 0.00 0.00 0.00 74 1014.9
20260506213639 45 142 0.0 11.0 0.00 0.00 0.00 73 1014.9
20260506212624 45 94 1.0 11.0 0.00 0.00 0.00 72 1014.8
20260506211608 46 94 0.0 11.0 0.00 0.00 0.00 71 1014.6
20260506211108 46 94 0.0 11.0 0.00 0.00 0.00 70 1014.6
20260506210052 46 94 0.0 11.0 0.00 0.00 0.00 69 1014.5
20260506205552 47 94 0.0 11.0 0.00 0.00 0.00 69 1014.5
20260506205052 47 94 0.0 11.0 0.00 0.00 0.00 68 1014.4
20260506204552 47 172 1.0 11.0 0.00 0.00 0.00 68 1014.5
20260506204052 47 172 0.0 11.0 0.00 0.00 0.00 67 1014.3
20260506203551 48 172 0.0 11.0 0.00 0.00 0.00 67 1014.8
20260506203051 48 172 0.0 11.0 0.00 0.00 0.00 66 1014.7
20260506202035 48 175 0.0 11.0 0.00 0.00 0.00 65 1014.4
20260506201535 49 175 0.0 11.0 0.00 0.00 0.00 65 1014.4
20260506201034 49 175 0.0 11.0 0.00 0.00 0.00 64 1014.5
20260506200533 49 175 0.0 11.0 0.00 0.00 0.00 64 1014.4
20260506200033 49 175 0.0 11.0 0.00 0.00 0.00 63 1014.5
20260506195532 49 175 0.0 11.0 0.00 0.00 0.00 63 1014.5
20260506195031 50 210 0.0 11.0 0.00 0.00 0.00 63 1014.0
20260506194530 50 210 1.0 11.0 0.00 0.00 0.00 63 1014.3
20260506193515 50 211 0.0 11.0 0.00 0.00 0.00 62 1014.5
20260506193014 50 119 1.0 11.0 0.00 0.00 0.00 62 1014.3
20260506192513 50 139 1.0 11.0 0.00 0.00 0.00 62 1014.1
20260506192014 50 149 1.0 11.0 0.00 0.00 0.00 62 1014.3
20260506191513 50 228 0.0 11.0 0.00 0.00 0.00 61 1013.8
20260506191013 50 109 0.0 11.0 0.00 0.00 0.00 61 1013.9
20260506185957 51 111 1.0 11.0 0.00 0.00 0.00 60 1013.9
20260506184941 51 112 1.0 11.0 0.00 0.00 0.00 59 1013.6
20260506184441 51 120 1.0 11.0 0.00 0.00 0.00 59 1013.8
20260506183940 52 128 1.0 11.0 0.00 0.00 0.00 58 1013.6
20260506183439 52 128 2.0 11.0 0.00 0.00 0.00 58 1013.6
20260506182939 52 127 3.0 11.0 0.00 0.00 0.00 57 1013.6
20260506181923 53 136 2.0 11.0 0.00 0.00 0.00 56 1013.4
20260506181423 53 140 0.0 11.0 0.00 0.00 0.00 55 1013.3
20260506180922 53 106 3.0 11.0 0.00 0.00 0.00 55 1013.4
20260506180421 53 117 4.0 11.0 0.00 0.00 0.00 54 1013.4
20260506175921 54 127 3.0 11.0 0.00 0.00 0.00 54 1013.1
20260506175422 54 123 2.0 11.0 0.00 0.00 0.00 53 1013.1
20260506174920 54 127 3.0 11.0 0.00 0.00 0.00 52 1013.1
20260506174420 54 137 2.0 11.0 0.00 0.00 0.00 52 1012.8
20260506173920 55 134 3.0 11.0 0.00 0.00 0.00 51 1013.0
20260506173421 55 107 3.0 11.0 0.00 0.00 0.00 50 1013.2
20260506172921 55 88 1.0 11.0 0.00 0.00 0.00 50 1013.1
20260506172419 55 87 1.0 11.0 0.00 0.00 0.00 50 1013.0
20260506171919 55 116 3.0 11.0 0.00 0.00 0.00 49 1013.3
20260506171420 55 138 3.0 11.0 0.00 0.00 0.00 49 1012.8
20260506170918 55 138 2.0 11.0 0.00 0.00 0.00 49 1013.2
20260506165903 56 133 3.0 11.0 0.00 0.00 0.00 48 1013.2
20260506165402 56 113 2.0 11.0 0.00 0.00 0.00 48 1012.9
20260506164902 56 116 2.0 11.0 0.00 0.00 0.00 47 1013.1
20260506164401 56 116 3.0 11.0 0.00 0.00 0.00 47 1012.9
20260506163901 56 125 2.0 11.0 0.00 0.00 0.00 47 1012.9
20260506163401 56 135 1.0 11.0 0.00 0.00 0.00 48 1013.1
20260506162900 56 142 1.0 11.0 0.00 0.00 0.00 47 1012.9
20260506162359 56 119 2.0 11.0 0.00 0.00 0.00 46 1012.7
20260506161900 56 141 2.0 11.0 0.00 0.00 0.00 46 1012.9
20260506161358 56 95 2.0 11.0 0.00 0.00 0.00 46 1013.0
20260506160859 56 111 2.0 11.0 0.00 0.00 0.00 45 1012.8
20260506160359 56 95 2.0 11.0 0.00 0.00 0.00 44 1012.9
20260506155858 56 114 2.0 11.0 0.00 0.00 0.00 43 1013.0
20260506155358 56 102 2.0 11.0 0.00 0.00 0.00 43 1012.9
20260506154341 56 116 3.0 11.0 0.00 0.00 0.00 41 1012.8
20260506153841 56 111 3.0 11.0 0.00 0.00 0.00 41 1012.9
20260506153340 56 120 3.0 11.0 0.00 0.00 0.00 41 1012.7
20260506152839 56 72 1.0 11.0 0.00 0.00 0.00 40 1013.0
20260506152339 56 111 2.0 11.0 0.00 0.00 0.00 41 1012.8
20260506151837 56 91 2.0 11.0 0.00 0.00 0.00 40 1012.9
20260506151337 57 87 2.0 11.0 0.00 0.00 0.00 39 1012.9
20260506150837 57 91 0.0 11.0 0.00 0.00 0.00 38 1012.9
20260506150337 57 57 2.0 11.0 0.00 0.00 0.00 37 1012.8
20260506145836 57 109 2.0 11.0 0.00 0.00 0.00 37 1012.7
20260506145336 57 105 1.0 11.0 0.00 0.00 0.00 36 1012.9
20260506144835 57 148 2.0 11.0 0.00 0.00 0.00 37 1012.9
20260506144335 57 96 0.0 11.0 0.00 0.00 0.00 36 1012.9
20260506143835 57 104 0.0 11.0 0.00 0.00 0.00 36 1013.0
20260506143334 57 112 3.0 11.0 0.00 0.00 0.00 36 1012.5
20260506142834 57 90 1.0 11.0 0.00 0.00 0.00 36 1012.7
20260506142333 57 70 2.0 11.0 0.00 0.00 0.00 36 1012.9
20260506141834 57 96 2.0 11.0 0.00 0.00 0.00 37 1012.9
20260506140818 58 102 2.0 11.0 0.00 0.00 0.00 34 1013.1
20260506140317 58 27 1.0 11.0 0.00 0.00 0.00 34 1012.6
20260506135817 58 50 1.0 11.0 0.00 0.00 0.00 33 1012.7
20260506135317 58 58 1.0 11.0 0.00 0.00 0.00 35 1012.7
20260506134816 58 73 0.0 11.0 0.00 0.00 0.00 34 1012.9
20260506134315 58 81 1.0 11.0 0.00 0.00 0.00 34 1012.8
20260506133814 58 148 1.0 11.0 0.00 0.00 0.00 33 1012.6
20260506133313 58 43 1.0 11.0 0.00 0.00 0.00 33 1012.7
20260506132258 58 119 2.0 11.0 0.00 0.00 0.00 34 1012.9
20260506131758 58 168 0.0 11.0 0.00 0.00 0.00 33 1012.7
20260506131258 58 166 1.0 11.0 0.00 0.00 0.00 32 1012.8
20260506130758 58 70 1.0 11.0 0.00 0.00 0.00 33 1012.7
20260506130257 58 118 3.0 11.0 0.00 0.00 0.00 33 1012.5
20260506125241 58 120 3.0 11.0 0.00 0.00 0.00 32 1013.0
20260506124740 58 97 1.0 11.0 0.00 0.00 0.00 33 1013.1
20260506124240 57 215 1.0 11.0 0.00 0.00 0.00 32 1012.5
20260506123225 58 212 2.0 11.0 0.00 0.00 0.00 30 1012.8
20260506122724 59 134 2.0 11.0 0.00 0.00 0.00 30 1013.1
20260506122224 59 143 1.0 11.0 0.00 0.00 0.00 30 1012.9
20260506121724 59 53 0.0 11.0 0.00 0.00 0.00 31 1012.5
20260506121224 59 47 0.0 11.0 0.00 0.00 0.00 31 1012.6
20260506120724 60 75 0.0 11.0 0.00 0.00 0.00 31 1012.9
20260506120223 59 95 2.0 11.0 0.00 0.00 0.00 31 1012.9
20260506115722 59 85 2.0 11.0 0.00 0.00 0.00 31 1012.7
20260506115221 60 93 2.0 11.0 0.00 0.00 0.00 29 1012.9
20260506114720 61 49 2.0 11.0 0.00 0.00 0.00 29 1012.8
20260506114220 60 43 1.0 11.0 0.00 0.00 0.00 31 1013.0
20260506113204 59 98 1.0 11.0 0.00 0.00 0.00 29 1012.9
20260506112704 59 31 1.0 11.0 0.00 0.00 0.00 31 1013.2
20260506112203 59 47 2.0 11.0 0.00 0.00 0.00 29 1012.9
20260506111703 58 51 2.0 11.0 0.00 0.00 0.00 30 1013.2
20260506111202 58 72 1.0 11.0 0.00 0.00 0.00 29 1013.2
20260506110701 59 10 2.0 11.0 0.00 0.00 0.00 29 1013.1
20260506110200 59 87 1.0 11.0 0.00 0.00 0.00 30 1013.3
20260506105659 58 88 2.0 11.0 0.00 0.00 0.00 30 1013.4
20260506105158 58 151 2.0 11.0 0.00 0.00 0.00 28 1013.3
20260506104658 58 80 2.0 11.0 0.00 0.00 0.00 28 1013.3
20260506104158 58 123 3.0 11.0 0.00 0.00 0.00 27 1013.2
20260506103141 58 99 1.0 11.0 0.00 0.00 0.00 31 1013.1
20260506102641 57 28 1.0 11.0 0.00 0.00 0.00 31 1013.5
20260506102140 57 28 2.0 11.0 0.00 0.00 0.00 29 1013.5
20260506101124 57 91 1.0 11.0 0.00 0.00 0.00 30 1013.7
20260506100623 57 65 2.0 11.0 0.00 0.00 0.00 32 1013.8
20260506100123 56 330 2.0 11.0 0.00 0.00 0.00 29 1013.5
20260506095623 57 22 3.0 11.0 0.00 0.00 0.00 30 1013.6
20260506094606 58 70 1.0 11.0 0.00 0.00 0.00 30 1013.6
20260506093034 56 136 1.0 11.0 0.00 0.00 0.00 31 1013.8
20260506092534 56 95 5.0 11.0 0.00 0.00 0.00 31 1013.9
20260506092033 56 121 2.0 11.0 0.00 0.00 0.00 31 1013.6
20260506091016 56 2 2.0 11.0 0.00 0.00 0.00 31 1013.8
20260506090515 56 68 1.0 11.0 0.00 0.00 0.00 33 1014.2
20260506090014 56 33 1.0 11.0 0.00 0.00 0.00 32 1014.1
20260506085514 57 18 2.0 11.0 0.00 0.00 0.00 31 1014.0
20260506085013 56 12 1.0 11.0 0.00 0.00 0.00 33 1014.3
20260506084512 55 4 2.0 11.0 0.00 0.00 0.00 34 1014.0
20260506084012 55 11 1.0 11.0 0.00 0.00 0.00 33 1014.3
20260506083512 55 100 0.0 11.0 0.00 0.00 0.00 34 1014.2
20260506083012 55 81 2.0 11.0 0.00 0.00 0.00 32 1014.1
20260506082512 55 59 2.0 11.0 0.00 0.00 0.00 33 1014.1
20260506081455 54 32 3.0 11.0 0.00 0.00 0.00 33 1014.2
20260506080955 54 26 3.0 11.0 0.00 0.00 0.00 33 1014.3
20260506080454 53 101 2.0 11.0 0.00 0.00 0.00 33 1014.4
20260506073451 53 48 3.0 11.0 0.00 0.00 0.00 31 1014.8
20260506072951 53 75 1.0 11.0 0.00 0.00 0.00 30 1014.4
20260506072451 52 55 1.0 11.0 0.00 0.00 0.00 31 1014.5
20260506071434 51 8 1.0 11.0 0.00 0.00 0.00 31 1014.4
20260506070933 51 26 3.0 11.0 0.00 0.00 0.00 30 1014.6
20260506070433 51 19 2.0 11.0 0.00 0.00 0.00 29 1014.2